Location: �terpigny
(49.8910°N, 2.9249°E)
Time: 22:05:08
(UTC+00:00)

DIWATA 2B (PO-101) - Pass Details

Date: 28 June 2022
Orbit: 583 x 599 km, 98.0° (Epoch: 16 August)

Event Time Altitude Azimuth Distance (km) Brightness Sun altitude
Exits shadow 02:50:21 - 226° (SW) 2,060 ? -6.8°
Reaches altitude 10° 02:50:50 10° 231° (SW) 1,937 ? -6.7°
Maximum altitude 02:53:28 16° 270° (W) 1,577 ? -6.5°
Drops below altitude 10° 02:56:09 10° 309° (NW) 1,950 ? -6.2°
Sets 02:59:05 0° 331° (NNW) 2,859 ? -5.9°
